Regional Weather Roundup
Issued by NWS

Home | Current Version | Previous Version | Text Only | Print | Product List | Glossary On
Versions: 1 2 3 4 5 6 7 8 9 10 11 12 13 14 15 16 17 18 19 20 21 22 23 24 25 26 27 28 29 30 31 32 33 34 35 36 37 38 39 40 41 42 43 44 45 46 47 48 49 50
000
ASUS44 KBMX 031810
RWRAL

ALABAMA REGIONAL WEATHER ROUNDUP
NATIONAL WEATHER SERVICE BIRMINGHAM AL
100 PM CDT MON AUG 03 2015

NOTE: "FAIR" INDICATES FEW OR NO CLOUDS BELOW 12,000 FEET
WITH NO SIGNIFICANT WEATHER AND/OR OBSTRUCTIONS TO VISIBILITY.

THE REMARK "TC" DENOTES TEMPERATURE IN DEGREES CELSIUS.

ALZ001>011-014-016>018-020-031900-
NORTH ALABAMA

CITY           SKY/WX    TMP DP  RH WIND       PRES   REMARKS
MUSCLE SHOALS  MOSUNNY   91  66  43 VRB5      29.96F HX  93
6HR MIN TEMP:  66; 6HR MAX TEMP:  93;

HUNTSVILLE     MOSUNNY   93  66  40 VRB6      29.96F HX  96
6HR MIN TEMP:  66; 6HR MAX TEMP:  94;

DECATUR        SUNNY     90  67  46 N10       29.96F HX  93
6HR MIN TEMP:  64; 6HR MAX TEMP:  91;

HALEYVILLE     FAIR      91  65  42 CALM      30.00F HX  93
6HR MIN TEMP:  62; 6HR MAX TEMP:  91;

GADSDEN        SUNNY     93  52  24 S3        29.92F HX  90
6HR MIN TEMP:  64; 6HR MAX TEMP:  93;

$$

ALZ012-013-022-023-030>036-040>044-031900-
WEST CENTRAL ALABAMA

CITY           SKY/WX    TMP DP  RH WIND       PRES   REMARKS
TUSCALOOSA     SUNNY     94  58  29 NE8       29.92F HX  93
6HR MIN TEMP:  68; 6HR MAX TEMP:  95;

$$

ALZ015-024>027-033>036-040>044-031900-
CENTRAL ALABAMA

CITY           SKY/WX    TMP DP  RH WIND       PRES   REMARKS
BIRMINGHAM     MOSUNNY   94  53  25 NE10      29.96F HX  91
6HR MIN TEMP:  69; 6HR MAX TEMP:  94;

MONTGOMERY     SUNNY     95  65  37 MISG      29.90F HX  97
6HR MIN TEMP:  74; 6HR MAX TEMP:  96;

SHELBY CO ARPT SUNNY     92  52  25 VRB5      29.93F
6HR MIN TEMP:  70; 6HR MAX TEMP:  92;

MAXWELL AFB    SUNNY     95  65  36 VRB3      29.89F HX  97
6HR MIN TEMP:  73; 6HR MAX TEMP:  95;

GREENVILLE     FAIR      97  56  25 NW8       29.90F HX  95
6HR MIN TEMP:  71; 6HR MAX TEMP:  98;

$$

ALZ019-021-028-029-037-038-045>048-031900-
EAST CENTRAL ALABAMA

CITY           SKY/WX    TMP DP  RH WIND       PRES   REMARKS
ANNISTON       SUNNY     92  64  39 VRB6      29.93F HX  93
6HR MIN TEMP:  67; 6HR MAX TEMP:  92;

ALEXANDER CITY SUNNY     92  60  34 N6        29.93S HX  92
6HR MIN TEMP:  67; 6HR MAX TEMP:  92;

AUBURN         PTSUNNY   91  70  49 SW5       29.95S HX  97
6HR MIN TEMP:  75; 6HR MAX TEMP:  91;

$$

ALZ051>064-031900-
SOUTHWEST ALABAMA

CITY           SKY/WX    TMP DP  RH WIND       PRES   REMARKS
MOBILE         MOSUNNY   95  61  32 VRB3      29.94R HX  95
6HR MIN TEMP:  75; 6HR MAX TEMP:  95;

BROOKLEY FIELD SUNNY     95  64  35 E7        29.93S HX  97
6HR MIN TEMP:  77; 6HR MAX TEMP:  96;

EVERGREEN      PTSUNNY   95  62  33 VRB5      29.91S HX  96
6HR MIN TEMP:  68; 6HR MAX TEMP:  99;

$$

ALZ049-050-065>069-031900-
SOUTHEAST ALABAMA

CITY           SKY/WX    TMP DP  RH WIND       PRES   REMARKS
DOTHAN         PTSUNNY   91  71  51 VRB3      29.93F HX  97
6HR MIN TEMP:  76; 6HR MAX TEMP:  96;

OZARK          MOSUNNY   93  70  46 VRB3      29.90F HX  99
6HR MIN TEMP:  76; 6HR MAX TEMP:  96;

TROY           PTSUNNY   95  64  35 N3        29.90F HX  97
6HR MIN TEMP:  73; 6HR MAX TEMP:  96;

EUFAULA        FAIR      93  74  53 E3        29.89F HX 103
6HR MIN TEMP:  76; 6HR MAX TEMP:  95;

$$


USA.gov is the U.S. government's official web portal to all federal, state and local government web resources and services.